CYGFM01 (41887 NORAD) Tracking and Keplerian Element Data

This shows tracking and keplerian element data for the satellite.

Feedback or suggestion? Click here.




ElementValue
Catalog41887
NameCYGFM01
Epoch Orbit13515
Epoch Day145.87128968
Epoch Year2019
RAAN313.8037
Inclination34.9537
Eccentricity0.001626
Argument of Perigee180.7478
Mean Anonmoly179.3211
Mean Motion15.14205062
Decay Rate2.19E-06
L11 41887U 16078D 19145.87128968 .00000219 00000-0 13455-4 0 9993
L22 41887 34.9537 313.8037 0016260 180.7478 179.3211 15.14205062135151

Live tracking and technical data element details for CYGFM01 (NORAD 41887). CYGFM01 can be tracked NOW for your location showing map with azimuth and elevation plus other details from your city location.

Track the satellite on the map from your city or location and see movement details for azimuth, elevation, latitude, longitude, range, height, and movement on the map or in text.







IsCatalogInMostPopularTable: catalog: 41887, numindb: 217
Update: records affected: 1



GetName: 41887 CYGFM01

Hit Count: updated at: Mon, 27 May 2019 04:32:13 GMT